Airfield :
LOGIN :

Register | Disclaimer

   EN    FR    IT 

 










Legend :    VFR   Marginal VFR   IFR   Intensive IFR   Very Intensive IFR
Visi :
Ceiling :
>= 8 km
>= 3000ft
5 to 8 km
1000 to 3000 ft
1500m to 5 km
500 to 1000 ft
800 to 1500m
200 to 500 ft
< 800m
< 200 ft
Symbols :   Thunderstorms  Fog  Heavy snow  Heavy precipitations  Wind > 20 kt
SIGMETs :     Misc.  Thunderstorms  Icing  Turbulence  Mountain Waves  Volcanic Ashes






- Airport Elevation : 896 ft


LOAN - Wiener Neustadt East

CURRENT METAR :
  • 221300Z 02009KT 15KM VCTS FEW025CB SCT040CU BKN060SC

EXPIRED METARs :
  • 221100Z 35014G24KT 12KM -SHRA VCTS SCT015CU FEW020CB BKN030SC

TAF TAF LOAN
Valid from the 22 at 12:00 until the 22 at 21:00 UTC


221125Z 2212/2221 33010KT 9999 SCT050
TEMPO 2212/2214 35015G25KT SHRA FEW050CB



MET'MAP, your aeronautical weather chart ! - Copyright ORBIFLY December 2007 - Disclaimer

ORBIFLY MET'MAP TEAM :

Programming & Development : Alexandra Zaïnal
Concept & original design : Baudouin d'Aumeries
Assistance for programming : Marc-Olivier Méhu
Technical & hardware support : Manuel Goepfert

Contact : metmap@orbifly.com




SOURCES & CREDITS :

   NOAA